Location: Unspecified
(51.3762°N, 0.0000°E)
Time: 16:38:41
(UTC+00:00)

nSIGHT-1 - Pass Details

Date: 30 August 2019
Orbit: 341 x 348 km, 51.6° (Epoch: 22 September)

Event Time Altitude Azimuth Distance (km) Brightness Sun altitude
Exits shadow 04:10:46 10° 279° (W) 1,302 ? -9.3°
Reaches altitude 10° 04:10:47 10° 279° (W) 1,295 ? -9.3°
Maximum altitude 04:13:40 82° 191° (SSW) 351 ? -8.9°
Drops below altitude 10° 04:16:33 10° 104° (ESE) 1,295 ? -8.5°
Sets 04:18:34 0° 104° (ESE) 2,135 ? -8.2°
